Weather History for Jacksonville Craig, FL

Change the Weather History Date:

Wednesday, November 21, 2012

  Actual Average Record
Temperature  
Mean Temperature 59 °F -  
Max Temperature 68 °F 69 °F 81 °F (2004)
Min Temperature 50 °F 51 °F 37 °F (2014)
Degree Days  
Heating Degree Days 6    
Growing Degree Days 9 (Base 50)    
Moisture  
Dew Point 48 °F    
Average Humidity 71    
Maximum Humidity 89    
Minimum Humidity 36    
Precipitation  
Precipitation 0.00 in - - ()
Sea Level Pressure  
Sea Level Pressure 30.07 in    
Wind  
Wind Speed 4 mph (North)    
Max Wind Speed 13 mph    
Max Gust Speed 21 mph    
Visibility 10 miles    
Events      
Averages and records for this station are not official NWS values.
T = Trace of Precipitation, MM = Missing Value Source: NWS Daily Summary

Daily Weather History Graph

Daily Weather History Graph

Search for Another Location

Airport:

Trip Planner

Search our weather history database for the weather conditions in past years. The results will help you decide how hot, cold, wet, or windy it might be!

Date:

Astronomy

Nov. 21, 2012 Rise Set
Actual Time 6:57 AM EST 5:26 PM EST
Civil Twilight 6:31 AM EST 5:52 PM EST
Nautical Twilight 6:02 AM EST 6:21 PM EST
Astronomical Twilight 5:33 AM EST 6:50 PM EST
Moon 1:19 PM EST (11/21) 12:40 AM EST (11/21)
Length of Visible Light 11h 21m
Length of Day
10h 29m
First Quarter, 61% of the Moon is Illuminated
Nov 21
First Quarter
Nov 28
Full
Dec 6
Last Quarter
Dec 13
New
Dec 20
First Quarter

Hourly Weather History & Observations

Time (EST) Temp. Dew Point Humidity Pressure Visibility Wind Dir Wind Speed Gust Speed Precip Events Conditions
12:53 AM 55.9 °F 52.0 °F 87% 30.05 in 10.0 mi Calm Calm - N/A   Overcast
1:53 AM 57.0 °F 53.1 °F 87% 30.04 in 10.0 mi Calm Calm - N/A   Scattered Clouds
2:53 AM 57.0 °F 53.1 °F 87% 30.04 in 10.0 mi NW 4.6 mph - N/A   Overcast
3:53 AM 55.9 °F 52.0 °F 87% 30.05 in 10.0 mi NNW 4.6 mph - N/A   Clear
4:53 AM 55.9 °F 52.0 °F 87% 30.05 in 10.0 mi North 3.5 mph - N/A   Clear
5:53 AM 55.0 °F 51.1 °F 86% 30.06 in 10.0 mi NNW 5.8 mph - N/A   Clear
6:53 AM 53.1 °F 50.0 °F 89% 30.07 in 10.0 mi NNW 3.5 mph - N/A   Clear
7:53 AM 54.0 °F 50.0 °F 86% 30.09 in 10.0 mi NNW 4.6 mph - N/A   Clear
8:53 AM 59.0 °F 51.1 °F 75% 30.09 in 10.0 mi NNE 6.9 mph - N/A   Clear
9:53 AM 63.0 °F 50.0 °F 63% 30.11 in 10.0 mi North 8.1 mph - N/A   Clear
10:53 AM 66.0 °F 46.9 °F 50% 30.10 in 10.0 mi NNE 8.1 mph - N/A   Clear
11:53 AM 68.0 °F 39.9 °F 36% 30.09 in 10.0 mi NNE 10.4 mph 20.7 mph N/A   Clear
12:53 PM 68.0 °F 41.0 °F 37% 30.07 in 10.0 mi NE 11.5 mph 18.4 mph N/A   Clear
1:53 PM 68.0 °F 41.0 °F 37% 30.06 in 10.0 mi NNE 12.7 mph - N/A   Clear
2:53 PM 66.0 °F 42.1 °F 42% 30.05 in 10.0 mi NE 11.5 mph - N/A   Clear
3:53 PM 64.9 °F 46.0 °F 50% 30.06 in 10.0 mi ENE 9.2 mph - N/A   Clear
4:53 PM 62.1 °F 48.0 °F 60% 30.06 in 10.0 mi NE 5.8 mph - N/A   Clear
5:53 PM 59.0 °F 50.0 °F 72% 30.06 in 10.0 mi Calm Calm - N/A   Clear
6:53 PM 55.0 °F 48.0 °F 77% 30.07 in 10.0 mi Calm Calm - N/A   Clear
7:53 PM 51.1 °F 46.9 °F 86% 30.07 in 10.0 mi Calm Calm - N/A   Clear
8:53 PM 51.1 °F 46.0 °F 83% 30.09 in 10.0 mi Calm Calm - N/A   Clear
9:53 PM 50.0 °F 46.0 °F 86% 30.11 in 8.0 mi Calm Calm - N/A   Clear
10:53 PM 55.0 °F 46.0 °F 72% 30.11 in 10.0 mi North 3.5 mph - N/A   Clear
11:53 PM 53.1 °F 45.0 °F 74% 30.11 in 10.0 mi North 4.6 mph - N/A   Clear